Regional Weather Roundup
Issued by NWS

Home | Current Version | Previous Version | Text Only | Print | Product List | Glossary Off
Versions: 1 2 3 4 5 6 7 8 9 10 11 12 13 14 15 16 17 18 19 20 21 22 23 24 25 26 27 28 29 30 31 32 33 34 35 36 37 38 39 40 41 42 43 44 45 46 47 48 49 50

000
ASUS45 KBOU 270107
RWRCO

WEATHER ROUNDUP FOR COLORADO
NATIONAL WEATHER SERVICE DENVER/BOULDER CO
600 PM MST FRI DEC 26 2014

NOTE: "FAIR" INDICATES FEW OR NO CLOUDS BELOW 12000 FEET WITH NO
SIGNIFICANT WEATHER AND/OR OBSTRUCTIONS TO VISIBILITY.

COZ001>005-013-030-031-270200-
...NORTHWEST COLORADO...

CITY           SKY/WX    TMP DP  RH WIND       PRES   REMARKS
CRAIG          LGT SNOW  15  11  83 SW13      29.96R FOG     WCI   1
HAYDEN         MOCLDY    12   9  85 W9        29.92R WCI   0
MEEKER         LGT SNOW  16  11  80 SW6       29.95R WCI   7
MOUNT WERNER   NOT AVBL
STEAMBOAT SPGS CLOUDY    13  10  89 SW6       29.91R WCI   4
WALDEN         CLOUDY     9   1  72 NW6       29.83R WCI  -1
$$

COZ006>008-011-270200-
...WEST CENTRAL VALLEYS...

CITY           SKY/WX    TMP DP  RH WIND       PRES   REMARKS
GRAND JUNCTION CLOUDY    24  20  84 NE6       29.99R WCI  17
MONTROSE       CLOUDY    24  17  74 NW12      29.96R WCI  13
EAGLE          NOT AVBL
RIFLE          CLOUDY    22   8  55 W12       29.96R WCI  10
DELTA          CLOUDY    31  19  60 CALM      29.93R
NUCLA          CLOUDY    25  16  68 NW12      29.98R WCI  14
$$

COZ017>023-064>068-270200-
...SOUTHWEST COLORADO...

CITY           SKY/WX    TMP DP  RH WIND       PRES   REMARKS
DURANGO        PTCLDY    20  14  77 SW12      29.87R WCI   8
CORTEZ         MOCLDY    20  17  88 S5        29.94R WCI  13
PAGOSA SPRINGS LGT SNOW  21  16  79 S10       29.87R WCI  10
TELLURIDE      LGT SNOW  14  13  94 W10G16    29.84R VSB 1   WCI   2
WOLF CREEK PAS CLOUDY     3   1  92 MISG      29.71R
$$

COZ009-010-012-014-032>034-037-058>063-270200-
...CENTRAL COLORADO...

CITY           SKY/WX    TMP DP  RH WIND       PRES   REMARKS
ASPEN          LGT SNOW  15  11  83 NW8       29.84R FOG     WCI   4
BUENA VISTA    LGT SNOW  12   8  83 CALM      29.84R
COPPER MTN     LGT SNOW   9   0  66 W17       29.68R WCI -10
BERTHOUD PASS  HAZE      -2  -8  78 MISG      29.65R VSB 1/4
COTTONWOOD PAS LGT SNOW  10   5  79 CALM      29.76R
GUNNISON       MOCLDY    10   1  67 CALM      29.86R
KREMMLING      CLOUDY    18   5  57 N10G17    29.86R WCI   6
LEADVILLE      LGT SNOW   4   0  83 S3        29.74R FOG
MONARCH PASS   CLOUDY     3   0  85 MISG      29.79R
SALIDA         MOCLDY     6   3  88 W6        29.93R WCI  -5
SUNLIGHT       LGT SNOW N/A N/A N/A CALM      29.77R
WILKERSON PASS CLOUDY     1  -4  78 SW3       29.72R
$$

COZ069>075-270200-
...SAN LUIS VALLEY/SANGRE DE CRISTO MOUNTAINS...

CITY           SKY/WX    TMP DP  RH WIND       PRES   REMARKS
ALAMOSA        FLURRIES  20  13  74 CALM      29.81R
LA VETA PASS   NOT AVBL
SAGUACHE       MOCLDY     3   0  85 NE5       29.82R WCI  -6
$$

COZ035-036-038>040-270200-
...NORTHERN COLORADO FRONT RANGE...

CITY           SKY/WX    TMP DP  RH WIND       PRES   REMARKS
DENVER INTL AP LGT SNOW  15  12  88 N7        29.99R FOG     WCI   5
DMNS CITY PARK   N/A     15  12  88 E6        30.00R WCI   7
AURORA         LGT SNOW  13  12  95 N2        29.99R FOG
FRONT RANGE AP LGT SNOW  18  14  86 NW5       29.99R WCI  11
ERIE MUNI ARPT LGT SNOW  16  15  93 CALM      30.02R
BOULDER MUN AP LGT SNOW  18  16  93 CALM      30.00R
CENTENNIAL     LGT SNOW  14  11  87 NE5       29.96R FOG     WCI   6
BROOMFIELD     LGT SNOW  16  14  93 N3        29.98R
FORT COLLINS   MOCLDY    16  12  86 CALM      30.03R
LONGMONT       LGT SNOW  19  16  88 CALM      30.04R
$$

COZ041-046-047-076>085-087-088-270200-
...PIKES PEAK/PALMER DIVIDE AND SOUTHERN FOOTHILLS...

CITY           SKY/WX    TMP DP  RH WIND       PRES   REMARKS
COLO. SPRINGS  LGT SNOW  17  10  74 N6        29.93R WCI   9
A. F. ACADEMY  FLURRIES  14   8  75 N7        29.91R WCI   4
ELLICOTT       NOT AVBL
FALCON         CLOUDY    13   7  78 N9        29.90R WCI   1
FORT CARSON    FLURRIES  19  11  74 E6        29.94R WCI  10
LIMON          CLOUDY    14  10  84 N12       29.97R WCI   0
MONUMENT HILL  LGT SNOW   9   5  85 CALM      29.89R
TRINIDAD       MOCLDY     8   6  92 NW7       29.96R FOG     WCI  -3
$$

COZ042>045-048>051-090-091-270200-
...NORTHEAST COLORADO...

CITY           SKY/WX    TMP DP  RH WIND       PRES   REMARKS
GREELEY ARPT   PTCLDY    10   5  79 CALM      30.03R
AKRON          LGT SNOW  13  11  92 N10       30.01R FOG     WCI   0
BURLINGTON     PTCLDY    16  12  84 N9        30.02R WCI   4
WRAY           LGT SNOW  20  17  91 NW7       30.05R WCI  11
STERLING       LGT SNOW  21  19  93 CALM      30.05R
HOLYOKE        FLURRIES  21  19  93 N13       30.05R WCI   9
FORT MORGAN    FLURRIES  16  13  90 N3        30.04R
$$

COZ086-089-092>099-270200-
...SOUTHEAST COLORADO...

CITY           SKY/WX    TMP DP  RH WIND       PRES   REMARKS
PUEBLO         LGT SNOW  22  19  89 SE7       30.01R FOG     WCI  13
LA JUNTA       CLEAR     14  10  84 N6        30.04R WCI   5
LAMAR          CLOUDY    21  18  88 N5        30.04R FOG     WCI  15
SPRINGFIELD      N/A     20  17  88 N8        30.01R WCI  10
$$



USA.gov is the U.S. government's official web portal to all federal, state and local government web resources and services.